Wind_Speed
8 8 7 7 7 6 6 6 6 5 5 6 7 7 7 7 7 8 8 8 8 8 8 7 7 7 6 7 7 7 7 6 6 6 6 5 5 6 7 7 8 9 9
7 7 6 6 6 6 6 6 6 6 5 6 7 7 8 8 8 8 9 8 9 8 8 8 7 7 8 8 7 6 7 7 6 6 6 6 5 5 6 7 7 7 8
6 5 5 5 5 5 5 5 6 6 6 6 7 8 8 8 8 8 8 9 9 9 9 8 9 9 9 9 8 8 8 8 8 7 7 7 6 6 6 7 8 8 8
5 5 4 4 5 5 4 5 6 6 6 6 7 8 8 8 8 9 9 9 10 10 9 10 10 10 10 9 9 9 9 9 9 8 8 8 7 7 8 8 9 9 10
6 6 5 5 5 5 5 5 6 6 6 7 7 8 8 8 9 9 9 9 10 11 11 11 12 11 11 11 10 9 10 10 10 9 9 9 10 9 9 10 10 11 12
7 7 6 7 6 6 6 6 6 6 7 7 8 8 8 9 10 10 10 10 11 12 12 13 13 13 13 12 11 10 10 10 10 10 10 11 11 11 11 11 11 12 12
8 8 8 8 7 6 6 7 7 8 8 8 8 9 9 10 11 11 11 12 13 14 15 14 14 13 13 13 12 11 11 11 11 11 11 11 11 11 12 13 13 13 14
9 8 9 9 9 9 8 8 9 9 9 9 9 10 11 11 12 12 13 14 14 15 16 15 15 14 13 13 13 13 13 13 12 12 12 12 13 13 13 13 14 14 14
9 9 10 10 10 10 10 10 10 10 11 11 11 11 12 12 13 14 14 15 16 17 16 16 15 15 14 15 15 14 14 14 14 13 13 13 13 13 14 15 15 15 15
9 10 10 11 10 10 10 11 12 12 12 12 13 12 13 14 14 15 16 16 17 17 16 16 16 17 16 16 15 15 15 15 15 14 13 14 14 15 15 16 16 16 16
10 11 11 11 11 11 12 12 13 13 13 13 13 13 14 14 15 16 17 17 17 18 18 18 18 18 18 17 17 16 16 16 15 15 15 15 16 16 16 16 17 17 17
11 12 12 12 12 12 13 14 13 14 14 14 14 14 14 15 15 16 17 17 18 18 19 19 19 19 19 19 18 18 17 17 17 17 18 18 17 17 17 17 18 18 19
12 13 13 12 13 14 15 14 14 14 14 15 15 14 15 16 16 16 17 18 19 19 20 20 20 20 20 20 20 19 19 19 19 19 19 19 19 19 19 19 19 19 20
13 13 13 13 13 15 15 16 15 15 15 16 16 17 17 17 17 17 18 19 19 20 20 20 22 22 22 22 22 22 22 22 21 21 21 20 20 21 22 21 21 21 21
15 14 14 14 15 15 16 16 17 17 17 18 18 18 19 19 19 19 19 20 20 21 21 21 22 22 23 23 23 23 22 22 22 22 22 22 22 22 22 22 22 22 22
18 17 16 17 17 17 18 18 18 18 18 19 19 21 21 20 20 20 21 21 22 22 22 21 22 22 22 23 23 23 23 22 23 22 22 23 22 22 23 23 23 23 23
19 19 19 19 19 20 19 19 19 19 20 21 22 22 22 21 22 22 22 22 22 22 22 23 22 23 23 24 23 23 23 23 23 23 23 23 23 23 23 23 24 24 25
21 21 21 21 21 22 22 22 21 21 21 22 23 23 23 23 23 24 23 23 23 23 24 24 24 24 24 24 24 24 24 24 24 24 24 24 24 24 24 24 25 25 26
23 23 23 23 23 23 23 23 22 22 22 22 23 24 24 25 25 25 24 24 24 25 25 25 25 25 26 26 25 25 25 25 25 25 24 25 25 26 26 26 26 26 26
24 24 23 23 24 24 24 23 23 24 24 24 25 26 26 26 26 26 26 26 26 27 26 26 26 26 26 27 27 26 26 26 26 25 25 25 25 25 26 27 28 27 27
25 26 25 25 25 25 26 26 26 26 27 27 28 28 27 27 27 27 27 27 28 28 28 27 27 27 27 27 27 27 27 27 26 25 25 25 26 27 27 27 28 28 28
26 26 27 27 26 27 27 28 28 29 29 29 29 29 28 28 28 28 28 28 29 29 29 29 29 29 28 28 28 28 28 27 27 26 25 25 26 26 27 28 28 29 29
26 27 27 27 27 27 28 29 30 29 29 29 28 28 29 29 29 28 28 28 29 29 29 29 29 29 29 29 29 29 28 28 27 27 27 27 27 27 28 28 28 28 29
26 27 27 28 29 29 29 30 29 29 29 29 28 27 28 28 28 28 28 27 28 29 29 29 29 29 29 29 29 29 28 28 28 28 28 28 28 28 28 28 29 29 29
26 26 27 28 29 29 30 29 29 29 29 29 28 28 28 28 28 28 28 28 28 29 29 29 29 29 29 29 29 29 29 29 29 29 29 29 29 29 29 29 29 30 30
27 27 28 29 29 29 29 29 29 29 29 29 29 28 28 28 28 28 29 29 29 29 30 30 30 30 30 30 30 29 29 29 30 29 29 29 30 30 30 30 30 30 31
Wind_Direction
26 27 31 37 39 35 29 26 24 24 24 21 17 14 11 8 3 360 2 2 359 354 348 342 334 328 325 323 320 319 316 316 309 295 290 284 275 265 257 257 252 247 246
15 22 23 29 35 35 34 27 19 16 14 9 4 0 1 358 357 355 351 352 350 347 342 337 330 322 319 318 318 319 310 307 305 303 291 280 272 265 259 260 256 253 248
1 6 10 19 18 22 24 15 9 8 3 354 349 349 345 341 341 342 342 342 343 344 343 335 335 330 321 321 316 309 303 297 291 291 290 285 275 270 269 264 259 254 255
346 350 342 346 354 359 2 359 3 358 351 348 343 338 337 336 335 338 336 339 343 342 341 339 334 329 324 318 312 308 304 298 289 280 277 277 274 272 267 263 257 253 256
318 324 327 322 333 341 337 337 346 344 338 335 332 327 329 331 330 330 330 332 335 336 335 333 330 325 321 318 313 306 303 300 295 285 279 275 272 273 269 263 257 256 256
314 307 312 319 321 320 319 323 330 326 324 322 323 324 325 325 324 320 322 324 326 327 326 324 322 321 318 316 312 304 302 301 298 291 286 281 276 272 269 265 259 257 254
314 310 305 307 305 301 307 315 318 316 317 316 318 321 321 319 318 317 319 322 322 320 318 319 319 318 314 312 308 300 299 296 293 290 288 281 277 275 273 270 267 262 258
311 312 310 300 294 294 297 303 312 314 316 317 317 318 317 316 315 315 315 317 318 319 319 316 316 314 309 305 302 298 294 292 290 286 284 281 279 275 273 273 270 267 267
305 303 304 303 295 294 296 300 307 312 315 316 316 311 310 312 313 314 315 314 314 315 317 316 313 309 306 303 300 296 292 290 287 286 285 283 281 278 274 272 270 269 269
299 300 300 300 293 292 296 296 301 307 309 311 314 314 313 310 309 311 313 312 311 314 315 313 310 307 306 301 299 295 291 288 285 284 284 283 282 280 278 273 272 270 268
296 296 298 299 295 293 296 296 299 302 305 308 311 311 313 313 312 311 311 313 312 312 310 310 309 308 307 302 300 297 295 292 286 283 283 282 281 281 278 275 274 272 270
298 304 301 300 301 298 297 299 302 303 302 304 307 309 312 314 313 313 313 314 314 311 310 309 308 306 303 302 299 295 296 294 290 287 284 281 279 279 277 276 276 275 272
299 306 305 301 302 304 304 300 300 301 299 300 302 304 308 310 312 313 314 312 313 311 309 309 307 305 303 299 297 295 292 290 289 288 285 281 278 277 276 274 273 274 273
295 303 306 306 305 306 308 305 297 297 295 296 299 301 303 305 307 310 311 311 312 311 307 306 306 305 304 301 298 295 294 290 287 287 287 282 279 278 274 273 273 272 273
290 296 299 301 302 303 305 304 297 296 293 294 296 298 299 301 303 306 308 309 309 308 306 305 305 305 304 301 299 297 295 291 290 288 286 282 281 279 275 273 273 273 273
288 291 294 296 298 299 300 301 299 298 295 296 297 298 299 300 301 303 305 305 306 308 308 306 305 304 303 301 299 297 295 293 291 288 286 284 282 280 278 277 276 275 275
288 292 294 293 295 296 296 297 298 298 297 297 298 299 298 298 299 301 302 303 303 304 305 304 303 303 303 301 300 299 299 298 295 290 287 285 283 281 280 279 278 277 274
287 290 293 292 291 292 293 294 295 296 297 298 299 300 298 299 299 300 299 300 302 302 303 303 302 301 302 302 304 302 300 299 295 290 286 283 281 280 279 279 279 278 276
285 287 289 289 289 290 290 291 293 294 294 296 297 297 297 299 299 299 299 298 300 301 302 302 303 302 302 304 303 300 299 298 296 290 286 283 281 281 281 280 280 279 278
284 284 285 287 286 288 288 288 289 291 294 294 295 296 296 298 297 298 298 298 299 300 302 303 302 301 301 302 302 299 297 295 294 290 285 284 282 281 282 281 280 279 277
282 282 281 283 284 284 285 285 288 290 291 291 292 292 294 295 295 296 295 296 297 299 299 300 299 298 298 299 299 298 297 296 294 289 284 283 283 282 282 282 281 280 280
280 281 281 281 283 283 283 286 289 292 293 291 292 293 294 295 294 293 293 294 296 297 297 297 297 297 297 297 297 297 296 296 295 291 287 284 282 282 281 281 281 280 280
277 279 280 280 282 284 286 286 289 292 295 294 295 296 294 295 296 295 294 294 295 296 297 297 298 297 297 297 296 296 295 293 292 290 287 284 283 283 282 281 281 281 280
278 279 279 281 283 284 285 287 290 291 293 296 297 296 295 295 295 295 295 296 296 297 297 297 298 297 297 297 297 296 295 293 290 289 287 284 282 283 282 282 281 281 281
280 281 280 283 285 286 287 288 290 293 295 296 296 297 296 297 296 295 296 297 298 299 299 300 300 299 298 297 297 297 295 293 290 289 287 285 284 283 282 281 282 281 281
278 280 281 283 285 285 286 288 290 292 294 295 296 296 297 298 297 296 297 297 298 298 299 300 300 300 299 298 296 295 294 292 290 289 287 285 284 283 282 281 281 281 281
Height
5889 5888 5887 5885 5884 5883 5883 5882 5881 5880 5880 5879 5878 5877 5876 5875 5873 5872 5870 5869 5867 5866 5864 5863 5861 5860 5858 5857 5855 5854 5853 5852 5852 5852 5851 5850 5850 5851 5851 5852 5853 5854 5854
5889 5888 5887 5886 5885 5884 5883 5882 5881 5881 5880 5879 5878 5877 5876 5874 5873 5872 5870 5868 5867 5865 5864 5862 5861 5859 5858 5856 5854 5853 5853 5852 5851 5851 5850 5850 5850 5849 5850 5850 5851 5852 5852
5889 5888 5887 5886 5885 5884 5883 5882 5881 5880 5880 5879 5877 5876 5875 5874 5872 5871 5869 5868 5866 5865 5863 5861 5860 5858 5857 5855 5853 5852 5851 5850 5850 5849 5849 5848 5848 5848 5849 5849 5849 5850 5851
5888 5888 5887 5885 5884 5884 5883 5882 5881 5880 5879 5878 5877 5876 5874 5873 5871 5870 5868 5867 5865 5863 5862 5860 5858 5857 5855 5853 5852 5851 5849 5849 5848 5847 5847 5847 5847 5847 5846 5847 5846 5847 5848
5888 5887 5886 5885 5884 5883 5882 5881 5880 5879 5878 5877 5876 5875 5873 5872 5870 5869 5867 5865 5864 5862 5860 5859 5857 5855 5853 5851 5850 5848 5847 5847 5846 5845 5845 5845 5844 5844 5844 5844 5844 5844 5845
5887 5885 5884 5883 5882 5882 5881 5880 5879 5878 5877 5875 5874 5873 5872 5870 5869 5867 5866 5864 5862 5860 5859 5857 5854 5852 5851 5849 5848 5846 5845 5844 5844 5843 5842 5842 5842 5841 5841 5841 5841 5841 5842
5885 5884 5883 5882 5881 5880 5879 5878 5877 5876 5875 5874 5872 5871 5870 5869 5867 5866 5864 5862 5860 5858 5856 5854 5852 5850 5848 5847 5845 5844 5843 5842 5841 5840 5839 5839 5838 5838 5838 5838 5837 5837 5838
5883 5882 5881 5879 5878 5878 5877 5876 5875 5874 5873 5872 5870 5869 5868 5867 5865 5864 5862 5860 5858 5855 5853 5851 5849 5847 5846 5844 5842 5841 5840 5839 5838 5837 5836 5835 5835 5834 5834 5834 5834 5834 5834
5881 5880 5879 5878 5876 5875 5875 5874 5873 5872 5871 5870 5868 5867 5865 5864 5863 5861 5859 5857 5854 5852 5850 5848 5846 5844 5842 5840 5839 5837 5836 5835 5834 5833 5832 5831 5831 5830 5830 5830 5830 5830 5830
5880 5878 5877 5876 5874 5873 5873 5872 5871 5870 5868 5867 5866 5864 5863 5861 5859 5858 5855 5853 5851 5849 5846 5844 5842 5840 5839 5837 5835 5833 5832 5831 5830 5829 5828 5827 5826 5826 5825 5825 5825 5825 5826
5877 5876 5875 5873 5872 5871 5870 5869 5868 5867 5866 5864 5863 5861 5860 5858 5856 5854 5852 5850 5847 5845 5843 5841 5839 5837 5835 5833 5831 5829 5828 5826 5825 5824 5823 5823 5822 5821 5821 5820 5820 5820 5820
5874 5873 5872 5871 5870 5869 5868 5866 5865 5864 5862 5861 5859 5858 5856 5854 5852 5850 5848 5846 5844 5842 5839 5837 5835 5833 5831 5829 5827 5825 5824 5822 5821 5820 5819 5818 5817 5817 5816 5816 5815 5815 5815
5872 5870 5869 5868 5867 5866 5864 5863 5862 5860 5859 5857 5856 5854 5853 5851 5849 5847 5844 5842 5840 5838 5835 5833 5831 5829 5827 5825 5823 5821 5819 5818 5817 5815 5814 5813 5812 5811 5811 5811 5810 5810 5810
5869 5868 5866 5865 5864 5863 5861 5859 5858 5857 5855 5853 5852 5850 5849 5847 5845 5843 5841 5838 5836 5833 5831 5829 5826 5824 5822 5820 5818 5816 5814 5813 5811 5810 5809 5807 5806 5806 5805 5805 5804 5804 5804
5865 5864 5863 5862 5861 5859 5857 5856 5854 5853 5851 5849 5847 5846 5844 5842 5840 5838 5836 5834 5831 5829 5826 5824 5822 5819 5817 5814 5812 5810 5808 5807 5806 5804 5803 5802 5800 5799 5799 5798 5798 5798 5797
5861 5860 5859 5858 5856 5855 5854 5852 5850 5849 5847 5845 5842 5841 5839 5837 5835 5833 5831 5828 5826 5824 5821 5819 5816 5814 5811 5808 5806 5804 5802 5801 5799 5798 5797 5795 5794 5793 5792 5792 5791 5791 5791
5856 5855 5853 5852 5851 5850 5849 5848 5846 5844 5842 5840 5838 5835 5833 5831 5829 5827 5825 5823 5821 5818 5816 5813 5811 5808 5805 5802 5800 5798 5796 5795 5793 5791 5790 5789 5788 5787 5786 5785 5784 5784 5783
5850 5849 5848 5847 5846 5845 5843 5842 5840 5839 5836 5834 5832 5830 5828 5826 5824 5822 5820 5818 5815 5813 5810 5808 5805 5802 5800 5797 5794 5792 5790 5788 5786 5784 5783 5781 5780 5780 5779 5778 5777 5776 5776
5845 5844 5842 5841 5840 5839 5837 5836 5834 5832 5829 5828 5826 5824 5822 5820 5818 5816 5814 5812 5809 5807 5804 5802 5799 5797 5794 5791 5788 5786 5783 5781 5778 5777 5775 5774 5773 5772 5771 5770 5770 5769 5768
5838 5838 5837 5835 5834 5833 5831 5829 5827 5825 5823 5821 5819 5817 5815 5813 5811 5809 5807 5805 5802 5800 5797 5795 5793 5790 5787 5785 5782 5779 5776 5774 5771 5769 5768 5767 5766 5764 5763 5762 5762 5761 5760
5832 5831 5830 5829 5827 5826 5824 5822 5820 5818 5816 5814 5812 5810 5808 5806 5803 5801 5799 5797 5795 5793 5790 5788 5785 5783 5780 5777 5774 5772 5769 5766 5764 5762 5761 5759 5758 5757 5756 5754 5753 5753 5752
5824 5823 5822 5821 5819 5818 5817 5815 5813 5811 5809 5806 5804 5802 5800 5798 5795 5793 5791 5789 5787 5785 5782 5780 5777 5775 5772 5770 5767 5764 5761 5759 5756 5754 5753 5751 5750 5748 5747 5746 5745 5744 5743
5817 5816 5815 5813 5812 5811 5809 5807 5805 5803 5801 5799 5796 5794 5792 5790 5787 5785 5784 5782 5779 5777 5774 5772 5769 5766 5763 5761 5758 5756 5753 5750 5748 5746 5745 5743 5742 5740 5739 5737 5736 5735 5734
5809 5808 5807 5805 5804 5803 5801 5799 5798 5796 5794 5791 5789 5786 5784 5782 5780 5778 5776 5774 5771 5769 5766 5763 5761 5758 5755 5752 5750 5747 5745 5742 5740 5738 5736 5734 5733 5731 5730 5729 5727 5726 5724
5801 5800 5799 5798 5796 5795 5793 5791 5790 5788 5786 5783 5781 5779 5777 5774 5772 5770 5768 5766 5763 5761 5758 5755 5752 5750 5747 5744 5741 5738 5736 5733 5731 5729 5727 5725 5724 5722 5721 5719 5718 5717 5715
5792 5791 5790 5789 5788 5787 5785 5783 5782 5780 5778 5776 5773 5770 5769 5767 5765 5763 5760 5758 5755 5753 5750 5747 5744 5741 5738 5735 5732 5729 5727 5724 5722 5720 5718 5716 5714 5713 5711 5710 5708 5707 5706